Theta_e
311 301 298 298 301 303 305 306 306 304 305 304 303 302 301 301 302 303 303 302 303 302 302 303 303 304 305 307 309 310 310 309 308 308 309 310 311 312 312 313 313 313 314 318 318 318 317 316 316 318 323 326 328 329 328 328 327 328 328 328 327 329 331 331 330 330 329 328 328 328 328 326 327 326 326 326 327 328 329 331 331 331 330 332 331 328
309 300 299 303 305 305 306 307 306 304 305 303 302 301 300 301 300 303 304 302 303 302 302 302 302 303 304 306 308 309 308 306 307 308 309 310 311 312 312 312 313 314 316 317 316 316 315 315 315 316 319 321 322 325 327 327 327 327 328 327 328 329 329 330 330 330 329 330 329 328 327 327 327 326 325 325 326 327 328 329 330 330 330 330 331 329
297 296 302 305 306 307 306 305 305 304 302 303 301 301 300 300 302 302 302 302 302 301 301 303 301 303 305 307 309 308 307 308 309 309 310 311 311 312 312 312 313 314 314 315 316 316 316 317 316 315 317 319 321 323 326 327 328 328 327 328 328 329 328 329 330 331 330 331 330 329 329 328 328 329 328 328 328 328 327 328 329 330 330 329 330 330
290 295 301 302 305 305 304 304 304 303 303 301 300 299 297 301 298 296 302 302 301 302 300 299 299 301 304 306 307 309 308 308 310 310 310 311 310 311 312 313 314 314 315 315 316 315 315 316 316 316 316 317 320 322 324 326 327 327 327 328 328 328 329 328 329 329 332 332 332 331 331 330 329 328 328 328 329 329 328 327 328 329 329 329 328 329
292 301 304 301 301 304 301 303 302 300 298 302 302 300 298 298 300 300 299 300 300 300 298 299 298 299 303 302 305 309 310 308 309 310 310 311 312 313 314 314 314 313 313 314 315 316 316 315 315 315 315 316 318 321 323 325 326 327 327 328 328 328 328 329 328 329 330 331 331 330 330 330 329 329 328 327 326 327 327 327 328 328 329 329 328 329
296 302 305 301 300 301 302 300 301 301 297 299 302 302 301 301 300 300 301 300 299 298 299 299 293 294 301 303 303 307 307 306 308 308 308 310 311 312 311 312 313 314 314 314 314 315 316 316 316 316 316 316 318 319 323 325 326 327 328 328 329 329 329 328 329 329 328 329 328 326 325 323 323 322 323 322 323 325 325 325 328 329 329 329 329 329
298 303 303 301 300 299 301 300 302 303 298 296 298 305 304 302 301 301 300 299 294 290 297 298 292 289 301 300 303 305 306 306 307 307 308 309 310 310 311 312 312 313 313 315 314 314 314 315 315 316 316 316 315 317 321 325 326 327 328 329 329 329 328 329 329 329 327 328 328 328 326 325 324 322 324 326 327 327 328 329 328 328 329 329 329 329
299 300 301 302 300 299 297 297 302 303 299 295 305 304 304 302 301 300 301 299 297 302 301 296 299 292 292 298 304 305 304 304 305 307 308 309 310 310 311 312 313 314 314 314 315 314 314 314 314 314 316 316 315 317 320 323 325 326 327 328 329 329 328 329 329 328 327 326 327 327 327 326 326 325 325 327 327 329 329 328 328 329 329 329 329 329
299 297 299 298 298 297 295 299 303 304 299 299 301 305 303 302 302 302 301 299 300 297 292 297 298 292 291 298 302 303 300 302 303 305 307 308 310 311 312 313 314 315 315 314 313 313 313 314 315 315 315 316 316 316 318 320 322 325 327 328 328 328 328 328 329 328 327 326 327 327 327 326 326 327 327 328 328 328 328 328 328 328 328 328 328 329
297 300 300 300 297 294 298 300 303 304 298 301 300 300 303 304 303 302 299 298 297 293 287 293 297 290 291 298 299 300 300 300 302 304 306 308 310 311 312 313 315 315 315 315 313 313 313 314 315 316 316 315 315 316 317 317 320 323 326 326 327 327 328 328 328 327 327 327 326 326 326 326 326 326 327 328 327 327 328 327 327 327 327 328 327 327
299 303 303 300 296 299 299 301 302 304 303 301 302 299 297 296 295 295 296 294 291 285 289 295 297 294 287 296 298 298 299 302 303 305 307 308 310 311 312 313 313 312 313 313 313 313 313 314 313 313 312 313 314 316 316 315 317 320 322 324 325 326 328 328 328 327 326 327 326 325 326 326 326 327 326 326 326 327 327 326 326 327 327 328 327 327
299 299 298 302 304 303 302 298 302 305 302 303 299 295 296 292 294 291 289 291 285 284 292 297 296 296 285 292 297 302 304 303 304 303 305 306 308 310 311 311 312 311 311 311 311 311 312 312 311 312 311 312 312 313 314 315 316 317 319 322 323 325 326 327 327 327 327 326 326 326 326 326 326 327 326 325 325 326 326 326 326 327 327 327 327 327
294 295 299 301 304 301 298 297 299 301 300 300 298 296 289 285 286 283 286 281 284 285 292 297 297 292 290 295 299 302 303 304 304 305 306 307 307 309 310 312 313 313 312 310 310 310 311 311 311 312 312 313 313 312 313 314 315 316 317 318 320 321 325 326 327 326 326 326 326 326 325 326 326 326 326 326 326 327 326 326 326 326 326 326 326 326
291 298 297 297 300 302 300 291 292 292 297 297 294 291 286 284 282 281 284 286 287 290 295 294 298 290 295 298 303 302 305 306 306 307 307 307 308 308 310 311 311 313 313 312 312 311 312 312 312 312 311 311 312 313 313 313 313 314 315 316 318 319 322 325 327 326 326 326 326 327 326 326 326 326 326 326 326 326 327 327 326 326 326 326 326 326
284 283 291 295 290 302 299 297 296 294 296 295 298 294 288 287 284 281 284 281 283 287 290 295 289 286 289 294 300 304 305 307 308 308 308 308 308 309 310 311 310 310 311 312 313 312 312 312 312 312 312 312 312 312 312 312 312 313 314 315 316 317 320 323 325 326 326 326 326 327 327 326 326 326 326 326 327 327 327 327 327 327 327 326 327 327
288 290 296 300 300 301 296 300 301 299 296 296 297 296 290 286 291 284 286 286 286 288 286 288 288 295 294 302 300 302 303 303 303 305 306 307 308 309 309 309 309 309 310 311 311 312 312 312 311 311 311 311 311 311 311 311 312 312 313 314 316 317 319 321 323 325 326 326 326 327 326 326 326 325 326 326 327 327 328 328 327 327 327 327 328 328
290 287 298 299 302 298 298 300 299 301 285 294 295 287 291 301 296 287 286 286 286 286 284 291 291 295 300 301 303 304 303 303 304 305 305 305 306 307 307 308 308 309 310 311 311 311 312 312 311 310 310 310 310 310 311 311 312 311 312 313 314 316 319 320 322 323 325 326 326 326 327 327 326 326 325 326 326 327 328 328 328 327 327 328 328 328
289 289 298 298 295 299 302 302 301 301 302 297 288 292 300 302 299 290 282 286 284 281 284 290 288 291 292 288 301 301 301 303 303 304 305 306 307 306 307 308 309 310 310 311 310 310 310 309 308 308 309 308 308 308 309 309 310 311 311 311 312 314 316 319 321 322 323 325 326 327 327 326 327 326 326 326 326 327 327 327 327 327 327 327 327 327
297 287 292 298 299 300 302 302 299 300 298 298 295 304 292 285 284 288 286 279 279 279 282 287 290 290 292 292 297 298 299 299 300 303 303 304 305 306 308 309 310 310 310 310 310 311 311 311 310 310 309 308 307 306 306 307 307 307 308 309 310 311 314 317 320 321 323 324 326 327 327 327 326 327 327 327 327 327 327 326 327 327 327 328 328 327
297 286 290 297 298 298 299 297 286 292 298 299 300 297 299 295 290 286 286 288 287 281 282 283 289 286 295 295 298 299 301 302 301 302 303 304 305 306 307 309 309 310 310 310 311 311 311 310 308 308 307 306 305 305 306 305 305 305 306 307 308 310 313 316 319 321 321 323 324 326 327 327 327 327 327 327 326 326 326 326 327 327 327 327 327 327
292 296 284 293 298 298 288 293 290 294 290 292 293 292 294 291 296 296 293 288 286 283 283 283 283 289 296 301 300 301 302 302 302 302 304 304 306 307 308 308 309 309 310 311 311 310 309 308 308 308 306 305 304 303 302 303 303 304 305 306 308 309 310 313 316 318 320 322 323 324 325 326 327 327 327 327 326 325 326 326 326 327 327 327 327 327
291 290 284 290 289 289 293 298 298 298 297 294 293 291 293 290 287 284 282 292 288 286 283 283 282 290 298 301 302 302 303 303 304 304 304 305 306 307 309 310 309 310 310 309 309 308 308 306 306 306 306 305 303 302 302 303 302 302 303 305 306 309 311 312 315 317 319 321 323 323 324 325 326 327 326 325 326 325 325 326 326 326 326 326 326 327
298 295 290 287 289 292 295 295 298 298 300 298 297 294 297 294 294 288 282 286 289 289 292 287 285 288 300 300 301 301 302 302 303 304 304 305 306 307 308 309 310 309 307 307 306 306 305 304 304 303 302 302 302 303 303 303 303 303 303 303 305 307 310 313 315 317 319 320 321 322 323 324 325 326 326 325 325 325 325 325 326 326 326 325 326 326
296 289 287 289 293 294 293 296 296 295 298 296 297 298 297 292 293 291 290 291 287 289 286 286 283 289 299 303 302 302 302 303 303 303 303 304 305 305 306 308 307 307 307 307 307 306 305 304 303 302 303 306 308 307 307 305 303 302 302 303 304 305 308 312 315 316 317 319 320 321 322 323 324 325 324 324 324 324 325 325 325 325 325 325 325 325
290 292 290 285 285 286 288 289 290 289 295 292 294 296 297 297 297 295 291 289 286 288 289 286 280 287 298 301 302 301 302 301 300 300 301 302 303 305 305 305 305 305 306 306 306 307 306 305 305 305 305 306 307 306 305 303 302 302 303 303 302 303 306 309 312 314 316 317 318 319 320 321 322 323 323 323 323 323 324 324 325 325 324 325 324 324
292 292 289 282 278 276 276 278 281 286 288 292 295 296 297 296 294 292 286 287 281 287 290 286 285 293 298 300 300 300 299 299 300 300 301 301 302 303 304 306 305 306 306 306 306 307 307 306 305 304 304 306 307 306 304 304 303 303 303 303 302 302 303 305 309 312 314 315 316 317 318 319 320 321 322 322 322 322 324 324 324 324 323 323 323 323
289 291 291 289 286 283 285 288 293 294 293 288 290 293 294 296 296 294 292 288 285 288 287 289 291 292 294 297 298 300 301 301 302 302 301 302 302 302 303 303 304 305 305 305 305 305 304 305 305 306 305 306 306 305 304 303 303 304 303 302 302 301 301 303 304 306 309 313 314 315 316 317 318 319 320 321 321 322 322 323 323 323 322 322 322 322
288 288 290 291 291 291 292 291 293 292 289 292 291 291 294 294 295 292 287 285 293 288 284 291 294 291 293 296 298 299 301 302 302 303 303 303 303 304 306 307 302 304 304 304 304 305 305 306 307 307 307 307 307 307 304 303 302 302 303 304 304 302 300 301 301 302 305 308 309 311 313 316 317 317 318 319 320 320 320 321 321 321 321 320 319 320
289 286 291 291 290 292 293 292 287 291 290 290 292 292 292 294 294 289 289 292 292 286 284 292 294 292 294 297 299 300 301 301 302 303 305 305 305 305 304 303 304 305 306 305 306 307 307 309 310 309 308 308 307 305 304 304 303 302 300 300 301 302 301 301 300 300 301 303 305 307 310 312 313 314 314 313 314 315 315 316 317 317 317 317 317 317
293 287 290 291 289 291 291 291 292 287 288 290 290 292 293 294 293 294 293 295 294 291 293 294 294 294 297 299 300 302 304 304 303 304 303 302 302 302 303 303 304 304 304 305 306 308 310 310 310 309 308 307 305 305 305 306 306 305 304 303 302 301 301 300 299 299 300 301 302 305 307 308 308 308 308 308 308 309 310 310 310 310 311 312 313 314
292 287 291 290 286 287 290 292 292 291 289 287 289 290 291 291 291 293 294 294 295 294 294 293 293 293 299 302 301 303 304 305 303 302 302 303 302 300 301 301 302 303 305 308 308 309 310 311 310 308 307 306 306 306 306 307 306 306 304 303 302 302 302 300 299 299 300 301 302 303 304 304 304 304 305 306 306 307 305 306 304 304 304 305 305 306
292 287 293 289 284 284 288 289 290 290 290 288 288 289 290 289 287 289 289 293 292 291 293 293 290 291 298 301 302 303 303 302 301 302 302 303 301 299 300 301 303 305 306 307 308 309 309 308 309 309 309 310 311 309 308 307 307 306 304 304 303 302 301 299 299 299 300 301 302 301 301 301 301 301 301 302 303 303 301 301 300 300 301 301 301 301
290 288 286 286 282 282 287 289 288 287 285 282 284 288 290 291 291 292 292 293 293 294 290 287 289 296 298 300 299 300 300 299 300 301 302 301 301 302 303 303 304 304 305 306 306 307 307 308 309 310 310 309 309 310 309 308 306 305 306 305 305 302 299 298 298 298 299 300 301 301 301 300 299 299 298 298 299 299 299 299 298 298 299 299 299 298
289 288 287 289 281 282 285 286 287 282 275 277 290 293 292 290 290 289 289 291 293 294 292 294 294 296 297 298 298 297 297 298 299 302 304 303 302 303 304 304 304 304 304 304 304 305 306 307 308 309 310 310 309 308 307 306 305 305 304 302 301 300 300 299 298 298 298 299 300 300 300 299 298 297 297 296 296 297 297 297 298 298 298 297 296 297
287 287 287 287 283 281 284 283 279 273 275 287 291 293 293 292 292 290 291 292 293 294 294 293 294 295 297 298 299 299 300 301 302 302 304 305 306 305 304 305 306 306 307 306 306 306 307 307 307 308 309 309 308 308 307 305 303 302 301 301 301 301 300 300 299 298 298 298 300 300 299 298 297 296 296 295 295 295 295 296 296 296 297 297 296 297
287 287 287 285 285 285 282 280 272 273 285 289 290 291 293 292 291 291 289 291 292 293 294 293 294 295 296 297 298 300 300 301 303 304 304 305 306 306 305 305 306 306 306 307 307 307 307 307 307 307 306 306 305 306 306 304 303 302 302 302 300 301 300 300 299 299 299 298 299 299 299 298 297 295 295 295 294 294 294 294 295 295 295 295 296 296
291 288 287 283 286 278 280 279 278 285 284 286 287 288 290 288 289 287 283 288 293 294 294 293 294 295 296 297 298 299 300 301 299 299 303 304 305 307 306 305 306 306 307 308 308 308 309 308 307 307 305 304 304 304 303 303 302 301 300 300 301 300 299 298 298 299 299 298 299 299 299 298 297 295 294 294 293 293 294 294 294 295 296 295 295 295
288 286 287 283 282 284 279 277 278 277 274 280 288 291 294 295 295 295 290 287 294 295 296 295 294 295 296 297 297 298 299 296 293 295 301 304 305 308 307 308 307 306 306 307 307 307 307 307 306 306 305 303 302 302 302 301 301 299 298 298 298 298 298 297 298 299 300 300 300 299 299 298 297 295 294 294 293 293 294 295 296 296 293 296 295 295
290 290 287 284 281 282 279 276 275 273 277 286 288 292 294 295 295 297 290 283 293 295 296 296 295 296 297 296 297 298 295 290 292 296 301 302 304 303 303 305 306 305 304 304 304 303 304 304 303 301 300 301 301 303 302 300 299 298 298 299 299 298 298 298 298 298 298 300 301 300 300 299 297 295 294 293 293 294 293 293 294 294 292 294 297 296
285 286 286 283 280 281 279 277 275 279 279 286 290 292 294 295 296 292 279 280 292 295 297 297 296 296 297 298 298 297 294 290 292 297 301 302 302 302 300 301 302 303 303 303 302 302 302 300 300 300 301 300 301 302 301 300 300 297 297 298 299 298 298 298 299 299 300 300 301 300 299 299 296 294 293 292 292 294 294 293 293 293 293 292 294 293
281 283 284 280 280 281 280 279 281 282 288 291 291 293 293 298 293 282 277 286 296 296 297 298 297 298 298 298 298 295 297 299 299 300 299 300 299 300 300 300 299 299 299 300 300 296 299 299 299 299 299 300 300 300 300 299 298 297 298 298 298 297 299 300 300 299 299 300 300 299 298 297 296 293 292 293 293 293 292 293 293 293 292 292 292 292
281 282 282 283 280 279 280 278 278 282 289 293 293 296 296 291 282 280 291 298 297 295 294 297 296 293 294 294 296 296 298 299 298 299 298 298 297 297 298 298 298 298 298 297 295 295 297 298 297 297 298 298 299 298 298 297 296 296 297 297 297 298 300 300 300 299 299 299 299 298 297 293 293 292 292 291 292 291 291 291 291 291 291 294 293 290
281 279 278 279 282 283 281 278 277 274 286 294 294 290 295 287 287 294 296 294 295 295 296 295 295 294 294 292 294 294 295 295 296 296 296 296 296 295 295 295 294 294 295 295 296 296 296 295 296 296 296 297 297 297 296 293 291 293 294 295 296 298 298 298 298 298 298 298 297 293 292 292 291 291 292 291 291 291 291 291 290 290 290 291 290 289
287 279 280 282 285 278 278 276 278 285 289 295 294 287 292 294 298 296 298 295 292 291 294 297 295 296 292 293 292 293 294 293 293 294 294 294 295 295 295 295 295 294 294 295 295 296 295 294 295 295 295 296 295 296 294 294 291 291 291 293 296 296 296 296 296 296 295 292 293 292 291 290 290 290 291 291 291 290 290 290 290 290 291 291 291 291
287 284 286 281 287 283 281 285 289 293 294 296 297 296 297 298 295 295 297 297 295 296 292 293 293 293 293 294 293 292 292 291 291 292 291 291 292 292 293 293 292 292 292 293 294 294 293 293 293 293 293 294 294 294 292 291 291 289 289 293 295 294 294 293 292 290 290 290 290 290 290 290 290 290 290 290 290 290 290 289 289 289 290 290 291 291
289 290 286 287 287 291 291 291 293 291 291 294 295 294 295 297 293 292 296 295 290 290 291 294 293 293 293 292 293 292 291 290 290 290 291 291 291 290 290 290 290 291 292 293 293 294 292 293 291 291 291 293 293 293 292 291 290 289 291 293 292 292 291 289 288 288 289 289 289 289 289 289 289 289 289 289 290 290 292 291 290 290 290 290 290 291
286 288 287 286 287 286 282 291 291 291 292 292 293 294 293 293 295 293 294 293 291 291 292 292 292 292 292 291 292 292 292 292 291 291 291 290 290 291 290 290 290 291 291 291 293 291 292 290 290 290 289 289 292 292 291 290 290 290 291 289 290 289 288 287 287 287 288 288 289 289 289 288 290 291 290 289 290 291 291 292 291 290 290 290 290 290
284 288 286 287 286 285 286 287 288 289 289 291 292 292 294 294 291 290 292 292 291 290 290 291 290 290 290 290 291 292 292 292 290 290 289 289 290 291 291 291 291 291 292 292 292 290 289 289 289 289 289 290 291 291 290 289 288 288 288 288 287 287 286 286 287 287 288 288 289 290 290 290 288 289 290 290 289 290 290 291 291 290 290 289 290 290
286 289 284 287 285 288 290 290 290 291 291 291 289 289 291 292 291 289 288 289 289 289 290 290 290 292 291 292 292 291 290 290 290 290 289 290 291 291 292 292 291 291 291 290 290 289 289 289 288 288 288 289 290 289 288 287 287 287 287 286 286 285 285 286 286 287 287 288 289 289 290 290 289 290 290 290 289 290 291 291 290 290 291 291 291 292
286 284 288 286 283 284 285 287 288 285 286 288 286 288 290 289 290 288 289 288 287 288 289 289 290 291 291 291 291 290 289 289 289 289 289 290 290 290 290 290 290 290 290 290 290 289 288 287 287 287 287 288 289 288 287 286 286 286 286 286 285 285 284 285 286 287 287 288 289 289 290 290 290 289 289 290 290 289 289 288 288 290 291 291 289 289
285 286 286 284 283 283 288 289 288 290 289 290 291 290 288 288 290 289 289 289 289 290 290 289 288 288 289 289 290 289 289 289 289 290 289 289 289 290 289 289 289 288 288 289 288 287 287 288 287 287 287 288 288 287 286 285 285 285 285 285 284 284 284 285 285 287 288 288 288 289 289 289 290 289 290 289 289 289 288 289 289 287 287 288 288 288
Wind_Speed
2 13 13 15 17 16 16 17 16 2 6 8 10 10 10 9 7 3 1 3 1 3 10 12 12 14 18 17 14 12 10 9 13 16 17 16 15 14 14 15 15 16 16 13 11 9 9 9 9 9 9 9 11 12 13 13 14 15 15 14 15 13 14 13 14 14 13 13 13 12 14 14 11 10 10 10 11 12 12 13 13 12 13 14 13 12
3 11 15 15 14 15 17 17 12 4 8 10 9 10 9 10 10 8 8 5 2 5 5 4 9 13 16 17 15 14 11 12 15 17 18 18 17 14 16 17 16 15 11 11 11 10 9 9 10 10 9 10 12 13 13 14 15 16 16 16 15 12 13 15 15 13 15 15 14 14 14 13 12 12 12 13 12 13 13 14 14 14 14 14 14 13
3 11 9 7 2 9 9 9 7 9 6 9 10 8 9 10 7 3 2 2 3 2 11 8 13 14 16 19 17 14 13 13 15 16 18 17 17 15 14 16 15 13 14 12 13 11 11 11 11 10 10 11 14 13 13 14 14 14 15 15 14 13 13 14 15 13 14 14 14 14 12 13 12 13 12 13 13 12 13 14 15 14 14 14 14 15
7 8 3 2 4 8 7 10 10 10 10 7 9 10 10 5 7 6 6 4 4 5 4 2 10 12 14 17 21 17 14 14 17 17 18 16 16 19 19 15 12 15 15 15 14 13 12 12 11 10 10 12 11 11 11 13 15 13 13 14 15 14 14 13 14 14 13 12 12 14 12 12 12 11 11 13 12 13 14 15 15 15 14 14 14 15
11 3 6 4 2 2 10 12 14 12 11 11 13 13 11 6 9 7 1 2 3 5 2 8 11 14 14 16 17 15 15 16 16 16 17 16 15 16 15 12 14 18 17 14 14 13 12 12 13 13 12 10 10 12 13 12 13 11 15 16 16 15 15 14 15 15 13 11 11 12 11 11 11 11 11 11 13 14 14 13 14 15 15 15 15 15
9 4 4 7 3 2 6 9 15 14 12 11 15 14 13 8 9 3 4 4 6 8 6 4 10 13 11 17 18 12 5 8 10 13 14 15 15 14 14 17 16 15 15 17 17 16 13 13 14 12 12 12 12 13 13 12 13 12 12 14 15 13 13 14 16 16 14 12 13 15 12 13 14 14 14 16 17 15 16 17 15 15 16 17 17 15
9 6 8 8 7 5 8 8 9 13 12 12 10 14 12 10 10 8 5 3 9 11 2 2 8 13 3 9 10 8 8 7 6 9 12 12 11 11 12 13 13 12 12 12 14 13 12 15 15 15 12 12 12 13 10 10 12 14 13 13 13 13 12 13 14 16 13 13 12 16 15 15 16 15 13 14 13 12 12 11 14 14 15 16 16 16
7 11 11 10 9 8 6 10 8 9 8 8 3 13 13 11 11 9 9 10 10 4 1 4 7 12 13 12 10 9 11 11 11 12 11 11 11 12 12 13 13 12 11 8 7 9 11 14 14 15 12 10 12 11 9 11 11 14 15 14 14 12 12 11 12 15 15 14 14 15 16 14 15 15 14 14 13 12 10 11 13 11 12 14 15 15
16 13 14 13 11 9 9 8 2 8 6 1 5 10 17 15 15 12 11 9 4 4 13 11 6 9 13 5 5 9 13 12 13 11 12 13 15 16 17 16 15 14 11 8 8 11 12 13 14 12 11 10 10 10 10 11 11 12 13 13 14 14 13 12 14 14 15 15 15 15 14 14 13 14 12 9 10 10 11 12 11 11 11 12 14 15
2 12 13 10 9 10 11 10 5 7 8 2 3 9 3 8 9 10 9 9 5 6 15 14 11 11 17 7 5 6 7 13 7 8 10 12 15 17 17 16 13 11 9 7 10 11 11 12 11 10 10 10 10 8 9 11 10 10 10 13 15 16 13 12 15 15 16 17 15 14 15 17 14 12 11 10 10 11 11 12 12 12 11 11 12 14
3 2 8 9 11 12 6 4 7 7 2 4 7 3 2 3 3 3 2 5 3 14 18 17 14 12 13 5 10 7 7 4 4 6 8 12 14 17 16 12 11 11 8 6 8 9 10 8 8 9 10 12 10 8 8 10 10 10 11 13 15 16 13 13 15 16 18 17 17 17 17 18 17 15 12 11 12 11 11 12 13 12 11 11 11 10
4 6 6 3 5 3 7 4 1 5 6 5 3 0 2 1 2 4 1 3 9 10 15 12 15 14 15 3 2 7 3 3 8 10 10 12 13 13 10 10 10 8 7 6 7 8 7 7 8 8 10 11 10 8 9 9 9 10 11 12 15 15 15 13 13 15 16 15 17 18 18 18 17 16 12 14 14 13 13 13 12 11 10 11 10 10
8 9 4 3 5 12 9 9 3 5 6 7 5 4 8 3 5 7 5 11 10 11 1 8 13 8 19 21 9 7 7 7 9 10 11 11 12 11 12 11 8 5 6 7 6 7 7 8 8 9 10 9 8 8 9 10 9 9 11 13 14 15 14 14 14 16 17 16 17 17 18 17 15 17 17 16 15 13 12 12 12 11 11 11 10 11
7 7 9 5 3 7 10 12 10 9 11 12 13 11 10 8 7 10 8 0 2 5 3 8 12 10 11 18 16 22 18 18 18 11 10 13 14 15 16 14 10 8 10 10 8 8 10 11 10 10 10 10 9 9 9 9 9 9 10 12 14 16 14 15 15 17 17 19 18 16 16 16 14 15 16 15 15 15 14 13 13 13 12 11 13 12
8 9 10 13 8 11 13 9 14 8 16 13 9 9 7 2 3 6 5 8 7 6 3 7 6 4 4 5 7 4 5 11 12 15 15 15 16 17 15 11 13 14 13 10 9 9 11 11 11 9 8 9 9 10 9 8 9 9 10 12 15 16 15 15 16 15 17 16 17 16 16 16 14 14 13 14 13 13 14 13 13 13 12 12 12 11
13 2 10 18 8 17 15 14 5 7 7 10 8 3 5 10 2 3 1 2 1 4 3 4 6 5 14 4 5 5 2 2 6 10 11 15 13 10 11 13 12 12 12 10 10 11 10 10 10 9 9 9 9 10 8 10 9 9 11 12 14 16 15 14 15 15 16 16 14 16 17 17 16 13 12 12 12 13 12 12 12 12 12 12 10 10
7 8 11 11 8 19 19 12 8 9 9 9 8 10 11 1 1 3 1 0 2 4 6 4 5 9 11 20 18 16 10 13 11 12 13 11 10 8 9 11 12 11 10 10 9 10 12 8 8 8 9 9 8 8 9 10 8 10 10 11 13 14 12 13 15 15 14 14 14 15 16 15 15 15 16 14 15 14 12 11 11 11 12 11 11 10
10 5 10 15 11 15 15 16 12 9 3 7 9 10 5 5 2 4 7 0 3 6 4 5 8 9 7 11 5 7 12 8 10 15 15 12 9 9 8 9 10 10 10 10 11 11 11 11 9 8 8 9 9 10 10 9 8 8 10 11 12 12 13 12 12 13 13 14 15 14 15 16 16 15 16 16 15 13 12 12 12 12 11 12 11 10
4 6 4 12 14 10 8 10 9 2 5 4 5 8 10 5 9 4 3 11 8 9 6 8 13 14 12 17 7 10 12 8 8 9 10 11 10 11 11 13 11 10 9 9 10 9 9 8 6 7 7 6 8 9 9 8 6 7 9 10 12 14 13 12 10 11 12 13 11 11 14 15 15 15 15 14 14 13 13 14 14 13 13 12 11 11
5 5 5 3 6 9 9 10 13 11 4 2 3 9 1 1 1 10 9 1 5 9 5 9 11 10 12 16 16 14 17 8 9 8 9 9 8 8 9 7 8 8 8 9 9 9 9 8 7 7 6 7 7 7 7 7 6 8 9 10 11 11 11 11 12 12 13 13 13 11 12 13 14 14 14 14 14 14 15 15 14 14 14 14 11 11
3 2 4 6 2 7 8 6 13 13 14 7 7 8 4 3 1 2 2 7 3 5 9 7 11 7 13 13 14 15 17 5 7 9 10 10 11 12 9 8 8 9 8 8 8 9 9 9 8 5 5 6 6 6 6 7 8 8 7 10 11 12 12 13 13 12 12 11 12 14 14 15 14 15 13 14 16 18 16 14 13 14 13 12 13 15
3 7 8 5 5 8 4 7 6 11 13 12 12 12 13 11 6 9 6 3 5 6 5 7 14 9 10 3 7 10 11 7 8 9 9 10 10 9 7 8 8 8 9 8 8 8 8 9 8 7 6 5 6 8 8 7 7 9 10 9 9 10 11 13 13 12 12 11 11 13 14 15 13 13 14 16 17 18 18 17 18 14 15 18 15 17
2 2 5 6 6 8 6 4 3 4 7 11 9 11 10 8 6 5 11 8 5 7 3 1 6 13 12 5 5 8 6 7 7 7 9 7 9 8 8 8 7 7 9 9 9 8 8 7 8 8 9 9 9 9 8 7 7 8 8 8 9 10 12 10 10 9 9 10 11 13 13 12 12 12 14 15 15 18 18 17 17 16 16 17 15 15
2 2 5 3 1 2 3 2 5 6 1 9 10 8 8 11 12 10 8 1 5 6 9 7 9 12 16 4 10 6 7 6 4 5 9 9 7 8 8 8 9 8 9 8 7 7 6 6 6 7 7 8 8 7 8 6 6 7 8 8 7 10 11 8 8 8 9 10 11 12 12 12 12 13 14 15 17 18 18 16 16 15 14 16 13 12
7 6 8 9 5 2 2 1 2 1 2 3 6 12 13 13 15 10 5 2 4 9 9 8 15 9 14 7 10 7 6 5 5 5 5 7 5 6 7 8 8 9 8 9 9 9 8 7 7 7 8 9 10 8 7 7 7 7 7 6 7 8 8 8 7 8 10 10 12 11 12 13 12 13 14 17 16 18 17 17 15 13 11 12 11 10
6 6 11 12 10 10 11 9 10 9 11 7 2 8 13 15 15 9 8 6 8 5 11 9 10 13 21 12 14 7 3 4 6 5 5 5 7 8 7 7 9 7 7 8 9 9 9 8 8 8 8 9 10 7 7 7 7 7 7 7 6 7 7 8 6 8 8 9 10 11 12 12 12 13 15 16 18 18 17 15 15 12 11 12 18 13
2 1 6 11 12 12 11 8 1 8 7 5 6 11 13 14 16 14 7 10 10 7 13 12 14 16 23 25 21 20 13 17 16 7 7 7 7 9 9 7 7 7 7 9 9 8 9 9 10 9 9 8 9 7 6 7 7 6 7 7 7 7 7 7 6 8 8 9 9 10 11 12 12 11 12 12 13 14 15 15 16 14 15 12 14 12
2 5 10 9 14 12 11 9 2 5 7 6 9 9 12 14 14 14 12 9 5 9 16 10 13 11 22 28 24 22 15 16 16 13 7 6 7 8 8 8 9 8 8 7 7 8 8 9 10 10 10 10 8 8 8 5 6 8 7 8 5 6 6 5 6 7 7 7 9 10 11 10 9 9 10 11 11 11 14 14 13 15 14 12 12 13
4 8 11 12 13 14 15 11 3 1 5 8 10 11 13 14 14 14 15 15 13 12 11 10 12 16 23 28 29 24 22 15 16 16 16 11 10 6 7 10 10 9 8 6 7 7 7 10 13 12 11 12 11 10 9 8 7 6 7 8 7 5 7 5 5 7 7 7 10 11 8 7 9 10 10 10 9 11 11 11 11 11 10 9 10 10
3 9 7 8 11 14 14 12 6 5 8 7 9 9 9 10 15 17 18 18 18 17 15 15 15 20 19 22 26 24 17 8 13 14 13 12 6 7 9 10 10 9 8 7 6 8 9 13 13 13 11 12 10 11 10 10 9 8 7 8 6 6 6 3 6 7 7 9 11 8 6 8 10 8 7 8 10 10 8 8 8 8 8 10 10 10
4 5 9 3 5 10 12 10 9 10 9 12 13 13 9 2 4 10 14 17 19 22 24 21 21 21 16 18 26 28 20 11 18 22 22 13 8 11 10 10 10 8 8 9 11 13 13 12 11 11 12 12 12 11 10 10 9 9 9 8 7 6 4 4 6 7 8 10 8 6 6 6 9 9 10 12 9 9 9 9 7 7 8 8 8 9
5 3 4 3 8 9 8 10 11 11 10 12 13 13 12 14 15 15 14 14 15 16 16 19 19 17 15 20 23 25 24 23 22 23 21 13 10 11 12 12 13 13 15 13 12 11 11 13 12 10 10 12 12 10 11 12 12 11 11 9 6 4 3 5 7 8 9 9 6 6 7 7 7 10 12 10 11 9 7 6 7 9 9 8 9 8
7 5 6 6 10 11 13 10 10 3 4 10 13 15 18 21 19 16 17 15 16 12 14 14 16 15 16 14 18 23 29 28 22 18 15 14 16 15 15 15 13 12 11 10 9 10 12 14 14 12 12 14 14 12 12 11 12 13 11 8 5 1 4 6 7 8 9 8 8 8 7 6 7 8 10 10 8 7 7 8 8 10 9 10 7 4
4 5 6 7 7 6 8 3 3 5 11 9 8 19 19 18 17 18 16 17 19 18 16 17 19 16 15 16 19 23 27 28 27 24 15 10 15 18 14 11 9 8 7 8 9 10 12 14 15 15 15 14 11 11 11 10 10 11 7 6 4 5 5 5 6 7 8 8 8 9 8 8 8 9 9 8 8 7 8 9 11 10 8 6 6 8
9 7 8 3 7 8 3 6 4 12 10 12 15 8 9 15 18 21 23 25 24 22 23 23 22 20 20 19 20 24 26 29 28 29 23 9 10 16 18 16 13 10 10 12 13 14 18 20 17 16 16 11 9 10 8 7 5 7 9 7 8 6 6 6 6 6 7 8 9 8 7 8 8 10 10 8 8 8 9 10 9 9 9 8 9 9
6 9 7 4 7 6 7 7 7 7 7 8 6 10 12 16 19 20 22 24 24 23 20 21 22 25 26 26 26 25 27 28 25 23 20 20 15 14 12 14 16 14 13 12 15 20 19 15 13 13 13 11 10 10 7 6 5 8 11 8 7 6 4 5 5 6 6 8 8 8 8 8 8 8 9 9 8 9 11 11 11 11 9 8 8 8
10 4 6 6 7 8 6 9 10 9 16 14 11 13 14 12 11 14 14 16 17 18 19 20 23 26 26 26 25 24 23 19 19 22 22 22 21 9 8 16 16 15 14 12 11 10 9 8 10 11 12 11 9 9 9 9 8 8 10 10 8 5 5 5 7 8 7 8 9 9 9 9 8 9 10 9 10 11 12 12 12 10 8 9 9 10
6 8 3 6 6 7 9 10 8 6 9 15 19 16 8 7 10 11 11 15 15 17 17 21 23 24 24 23 22 22 19 15 17 19 22 6 4 7 9 6 7 7 7 9 9 8 8 8 7 9 8 10 10 8 8 8 8 9 9 10 7 6 8 6 8 7 7 10 9 9 8 7 8 8 10 10 13 14 12 10 8 10 8 11 11 11
1 0 5 10 8 7 9 11 10 9 13 14 18 12 4 8 10 6 5 15 14 22 22 21 20 20 20 20 19 16 13 12 15 19 8 8 5 2 2 5 5 4 6 7 7 8 9 8 8 9 9 8 9 8 7 8 8 9 10 8 6 7 9 7 7 7 10 11 8 7 7 7 8 10 10 11 13 12 11 11 11 6 5 8 9 9
6 7 5 10 13 13 11 11 12 7 9 15 16 11 0 6 12 8 12 10 17 23 15 15 17 18 18 18 17 16 14 12 15 13 6 6 6 2 2 5 7 6 6 6 5 5 7 8 7 7 7 8 10 8 8 8 7 10 10 10 7 8 9 7 8 11 14 13 12 9 8 6 10 11 11 12 11 9 9 5 4 7 8 6 5 4
7 6 11 16 14 15 16 12 9 10 10 17 20 6 4 5 6 10 13 13 4 5 2 4 13 17 16 15 11 11 12 10 9 8 6 4 7 6 2 1 5 7 9 10 10 8 6 6 5 7 9 8 9 8 7 7 8 9 9 9 8 9 7 7 9 9 8 8 10 10 10 7 8 10 10 9 8 6 5 5 6 5 5 6 4 4
6 5 3 8 14 16 14 16 13 10 10 15 9 5 9 6 10 15 14 3 5 3 2 2 3 3 5 3 2 3 7 8 8 7 9 9 7 7 8 8 8 7 5 6 8 9 8 7 8 9 9 7 6 6 6 7 9 9 9 9 10 10 8 8 8 7 8 9 8 7 9 7 7 8 9 7 6 7 8 6 5 6 7 6 6 7
11 8 9 12 8 7 8 11 12 13 12 21 6 3 6 10 14 10 2 2 3 4 3 2 1 2 2 1 2 3 5 8 8 9 9 9 8 9 9 10 10 10 11 12 12 9 6 8 9 10 11 9 8 6 6 5 6 9 10 10 11 10 9 10 10 10 9 8 8 7 7 7 8 9 7 8 8 8 9 6 7 7 7 8 7 8
13 8 7 10 9 9 11 10 9 15 12 5 14 10 8 15 3 1 3 3 0 1 1 3 1 3 1 1 3 5 4 5 8 7 9 8 7 8 8 9 9 9 10 9 8 10 8 8 8 9 11 9 9 7 3 6 7 7 8 12 10 9 9 9 10 9 10 8 7 6 7 7 7 8 6 7 7 8 9 8 8 7 7 8 8 9
16 13 11 10 12 11 12 12 15 5 2 5 7 6 2 3 3 2 3 3 3 2 1 2 4 3 2 2 4 5 3 3 5 6 5 9 8 8 9 10 10 11 11 13 13 14 9 7 9 9 11 10 10 8 4 3 5 8 10 11 8 10 10 9 8 9 9 9 8 7 6 5 6 6 6 6 7 8 9 9 8 9 7 8 10 9
0 10 2 2 7 13 11 11 5 1 2 3 3 1 3 3 1 4 5 1 1 2 4 1 1 4 3 2 2 4 5 6 5 7 9 10 12 10 9 8 9 10 12 12 13 12 10 8 9 7 12 13 12 10 3 3 3 8 12 10 9 9 8 8 9 10 10 9 8 8 6 6 5 5 6 7 7 9 8 9 9 9 9 9 10 9
5 4 5 5 1 6 9 17 17 15 7 5 5 3 4 6 4 2 2 3 3 5 5 5 4 6 7 6 6 6 6 5 5 7 7 7 9 10 9 9 9 10 11 13 14 11 12 8 9 10 9 11 12 9 8 6 5 7 8 7 9 8 8 9 9 10 9 9 8 7 5 6 4 3 5 6 5 5 7 8 8 7 8 8 9 7
4 5 5 9 7 11 9 6 4 4 2 3 1 3 7 2 3 1 2 4 5 5 3 6 4 6 6 5 7 6 7 4 5 7 5 5 7 8 8 9 10 11 11 11 12 10 9 10 10 11 10 13 10 7 8 8 9 9 7 6 7 8 8 9 9 8 7 7 5 6 4 5 7 6 4 6 7 7 6 8 8 8 11 11 10 10
1 9 6 5 8 11 9 10 5 9 8 7 7 7 6 3 3 4 3 3 3 3 5 6 6 6 4 6 2 4 6 7 6 6 7 7 7 9 10 10 10 11 10 8 8 7 8 9 11 11 11 12 9 6 7 9 9 9 10 8 6 8 8 8 8 8 8 6 5 5 5 4 4 4 5 4 6 7 8 8 9 9 9 10 9 10
3 8 3 3 5 9 7 3 2 6 7 2 5 6 2 3 5 5 3 2 4 6 7 7 7 6 6 5 6 4 7 7 7 6 8 8 9 11 11 10 10 9 9 8 6 6 8 9 9 11 12 11 8 7 8 9 9 8 8 8 9 9 10 10 8 7 7 5 4 4 4 4 4 4 5 5 7 7 7 8 10 9 8 8 10 13
9 4 5 8 7 4 5 6 4 1 2 5 5 3 3 3 2 1 4 5 6 6 4 6 7 3 5 7 5 7 7 7 9 7 7 7 9 10 10 11 12 11 11 6 7 8 7 8 8 9 10 11 8 8 8 8 5 7 8 8 9 10 11 10 8 7 6 5 4 4 4 3 4 4 5 6 6 5 7 6 6 9 11 11 8 11
Wind_Direction
275 179 185 195 201 195 198 204 211 120 208 167 183 193 206 211 214 183 286 91 150 258 238 240 245 254 264 265 265 258 246 239 257 261 261 261 259 256 254 254 253 253 255 252 244 246 243 236 230 229 226 224 222 219 215 213 212 213 212 209 213 209 204 204 207 209 206 208 214 217 216 212 203 199 202 209 216 223 227 228 229 231 229 225 218 217
315 199 204 208 212 203 205 204 198 150 193 181 191 203 213 216 235 197 210 107 156 235 266 197 260 258 261 268 262 261 246 246 252 256 256 259 258 256 252 255 254 255 258 250 251 241 235 232 229 226 224 221 222 220 216 213 212 213 213 213 214 206 202 207 206 205 208 209 209 210 215 215 213 201 201 212 214 218 222 226 228 227 228 228 226 220
253 212 196 187 53 195 181 177 189 204 179 201 214 211 225 228 234 65 205 100 131 221 263 270 269 265 262 267 267 253 241 247 250 250 257 262 267 263 257 256 258 258 256 253 253 240 236 224 219 220 224 225 225 228 217 217 217 215 213 215 214 210 205 205 207 205 207 207 211 212 214 214 222 222 219 220 219 217 222 223 225 228 228 226 225 221
247 260 195 50 52 153 159 181 188 204 211 202 202 212 224 187 170 223 182 150 179 228 288 347 287 276 273 270 269 256 236 240 247 251 257 256 258 262 261 262 266 263 262 259 253 244 235 228 219 215 222 225 223 226 226 216 215 215 214 211 209 212 208 205 205 209 212 207 204 213 215 217 221 225 223 227 228 228 226 227 226 227 226 224 225 224
193 47 141 112 53 133 165 184 194 201 212 215 220 227 230 155 213 244 147 127 155 227 295 275 276 269 250 255 264 257 225 220 237 246 249 254 251 257 268 269 255 259 263 264 261 251 241 234 227 216 219 220 221 221 222 216 213 212 212 209 208 209 208 206 203 201 206 207 203 214 217 224 225 231 229 223 228 226 225 226 223 223 220 221 223 223
186 191 136 123 121 223 173 181 200 204 218 214 222 226 231 209 209 128 121 254 250 248 173 243 292 268 242 223 242 256 176 213 228 244 251 256 258 260 260 259 258 248 244 246 252 252 253 252 250 231 218 215 219 224 221 216 218 216 219 213 210 209 209 209 206 202 199 203 204 209 208 213 217 221 218 219 218 214 215 217 220 218 216 218 222 221
193 139 156 139 149 180 209 198 201 199 218 217 217 203 221 211 215 163 154 186 251 258 210 186 248 279 170 233 229 229 237 218 226 235 251 256 258 258 257 259 258 251 248 237 240 247 251 254 255 251 237 219 225 230 222 218 222 220 221 218 213 212 211 207 204 196 194 202 204 203 204 207 208 212 217 217 218 215 215 214 217 216 216 219 222 223
127 158 168 170 150 157 227 209 201 201 207 233 128 178 204 203 188 184 201 221 250 297 100 194 249 274 278 255 244 241 250 248 234 238 241 247 253 253 256 259 258 256 248 243 244 242 240 250 251 254 248 230 225 228 214 220 219 220 220 217 215 214 213 207 200 195 194 200 204 207 209 209 210 210 216 207 210 211 211 206 205 205 210 212 217 221
170 167 170 171 169 166 187 219 126 198 210 238 327 191 200 199 206 199 212 219 241 287 265 237 157 269 258 260 167 221 253 247 237 232 243 252 259 261 256 253 252 257 265 260 258 252 241 243 250 251 255 249 245 225 218 223 224 221 221 218 218 217 214 211 202 200 198 202 206 207 210 215 217 218 219 208 202 201 204 208 203 204 209 210 215 219
342 179 176 180 175 204 209 193 176 172 218 6 72 344 295 195 196 192 207 218 211 219 248 235 194 243 269 236 212 149 234 259 239 211 236 244 249 255 259 260 261 270 269 253 255 257 255 252 258 265 271 266 251 233 223 232 228 222 217 218 218 221 216 209 204 201 203 204 207 213 216 218 220 217 218 211 205 200 201 210 210 208 209 210 210 213
167 18 186 181 198 213 198 167 177 183 139 118 52 340 33 64 110 93 107 145 186 231 240 235 207 209 279 237 213 189 228 255 258 232 235 242 244 251 259 269 275 271 270 266 264 259 258 265 270 275 270 267 262 238 232 232 226 224 220 221 221 223 219 213 209 204 206 205 206 214 216 216 219 218 217 216 218 212 205 212 211 209 211 210 211 205
107 121 153 239 177 119 145 155 90 149 144 143 97 260 151 24 95 126 131 152 216 236 243 221 207 199 242 202 165 225 115 208 259 264 242 241 249 255 262 264 263 265 273 277 273 274 269 264 255 253 259 259 256 248 236 229 226 225 225 223 226 227 221 217 212 210 211 209 211 216 217 217 216 213 212 217 220 213 212 213 214 212 213 212 211 208
166 178 171 102 169 164 162 145 153 126 157 178 171 196 214 199 163 210 142 205 203 222 50 165 159 199 234 252 260 255 221 214 225 235 255 260 260 254 255 254 256 265 275 267 260 268 270 259 255 248 254 260 252 243 241 238 230 227 229 225 227 230 219 214 210 211 213 212 215 215 217 219 218 215 214 215 218 217 216 215 215 211 212 210 208 210
188 159 167 154 162 194 171 165 163 178 190 189 193 188 213 204 198 209 193 126 218 266 245 158 161 219 279 277 237 241 236 241 243 228 230 242 248 258 262 273 289 296 281 274 268 265 267 266 265 258 260 261 262 248 238 236 230 226 224 225 227 233 222 214 212 213 213 215 218 216 217 219 218 219 218 218 217 214 213 212 211 211 212 211 212 210
165 170 195 161 204 179 199 206 179 176 178 194 194 180 192 247 219 224 190 200 196 211 137 179 139 211 211 225 11 152 259 246 248 247 241 240 244 253 268 282 285 279 277 274 270 260 262 263 262 264 253 251 251 254 245 230 227 225 226 223 222 230 228 218 214 214 216 218 218 217 217 218 219 222 221 223 225 222 218 216 212 210 213 217 217 213
201 218 169 185 159 166 194 207 196 108 140 187 179 180 232 228 223 249 3 7 272 215 164 209 211 209 225 110 171 133 234 247 252 256 250 248 247 255 267 271 272 273 274 276 279 280 263 253 263 262 262 256 255 255 250 241 229 220 226 225 224 225 225 217 216 217 218 219 218 218 218 219 219 220 223 225 224 225 222 219 215 214 215 218 217 212
196 224 160 164 163 177 194 175 198 165 183 170 159 206 212 69 134 19 310 125 2 333 269 157 241 260 282 276 264 256 209 219 217 238 236 243 255 252 259 267 268 267 273 274 274 272 276 264 244 248 261 264 262 255 245 247 237 233 234 232 233 233 231 223 217 217 219 222 222 221 221 221 219 220 220 224 226 225 224 223 222 224 224 221 218 216
179 154 145 162 180 198 191 187 193 199 57 124 200 206 85 51 98 192 259 161 199 249 256 157 223 244 243 283 117 187 232 228 217 240 256 253 246 248 246 253 257 261 265 270 270 269 270 270 273 272 261 262 268 268 269 263 254 247 248 246 246 244 236 230 224 222 221 221 222 223 221 220 220 221 224 226 229 228 225 221 224 226 226 220 215 208
169 183 195 197 186 168 174 184 203 66 334 209 199 137 163 182 206 156 181 239 247 237 246 228 225 245 242 256 237 258 238 176 199 235 253 255 251 252 255 255 259 262 266 269 271 271 272 271 275 273 271 266 260 262 265 268 258 254 249 248 251 251 245 237 226 221 221 220 220 219 220 218 220 222 224 224 225 224 223 222 222 222 223 222 215 209
193 213 157 213 175 159 169 188 203 192 193 302 56 189 175 65 281 179 188 267 214 247 239 257 203 240 223 239 250 249 258 217 189 206 240 254 252 253 252 258 269 275 269 269 273 274 276 286 282 282 291 285 273 268 263 262 255 247 244 240 237 246 252 243 227 220 222 220 220 220 218 220 221 221 222 222 220 222 224 225 222 222 223 221 216 221
158 303 239 143 120 155 199 190 204 188 188 188 190 199 187 208 325 35 190 201 207 218 229 259 258 232 238 226 236 242 257 210 209 227 234 246 253 258 270 271 267 267 268 266 271 280 290 293 292 291 285 278 275 263 261 256 253 253 243 238 235 227 233 238 235 229 226 223 221 221 220 220 219 220 220 227 231 235 233 230 226 225 226 225 226 228
159 181 211 137 186 194 209 192 224 208 190 196 190 200 190 175 158 196 215 162 222 212 213 213 245 257 257 138 227 243 260 249 232 230 236 239 248 259 260 266 259 265 269 278 278 285 291 293 298 295 279 268 270 269 258 249 248 248 237 233 235 233 229 227 227 221 224 220 222 222 224 224 222 220 221 227 232 234 235 235 235 229 232 231 226 230
206 114 182 179 187 196 207 50 32 60 216 222 207 215 197 200 217 213 220 194 208 224 336 292 319 268 263 136 220 244 246 239 228 218 234 226 244 250 253 256 264 271 281 283 288 289 287 292 295 293 291 287 277 275 275 269 254 255 254 241 232 230 237 227 229 226 223 225 222 225 225 224 222 218 219 222 230 232 231 233 233 231 230 232 230 225
53 161 166 190 191 3 16 1 23 16 120 215 226 235 216 209 201 217 223 2 211 207 227 236 245 270 267 125 254 245 256 250 238 226 249 248 237 252 262 274 280 283 278 282 279 276 274 283 287 290 289 285 280 281 283 275 269 261 250 242 236 236 242 232 222 225 225 227 229 227 224 222 221 219 218 225 230 231 230 230 231 229 229 230 229 222
197 184 196 198 201 198 259 305 311 358 311 244 208 205 216 216 217 233 275 35 244 204 213 215 241 247 269 114 273 277 261 227 207 214 248 264 258 257 267 272 271 271 278 285 290 295 303 293 287 292 299 293 289 294 285 280 274 264 260 244 237 247 246 240 231 224 224 224 227 224 222 223 219 218 217 224 231 232 229 227 227 225 218 220 223 215
204 159 189 213 191 196 208 212 211 208 203 200 249 231 217 215 215 211 224 203 238 216 221 227 245 253 269 271 269 246 126 226 185 206 245 238 263 269 258 259 270 273 269 284 292 298 300 303 301 292 284 284 290 291 290 280 266 260 258 252 240 249 246 238 237 235 232 229 229 230 225 226 221 220 221 223 230 232 229 227 226 221 216 214 224 217
167 237 239 214 212 209 205 207 94 55 85 183 202 208 215 212 218 221 232 232 228 204 227 217 232 259 269 268 263 265 266 270 275 243 211 222 236 244 258 259 257 263 275 280 285 293 298 298 298 295 284 275 286 288 280 276 276 264 255 251 233 233 241 239 230 232 233 233 232 236 232 226 224 223 224 224 225 229 230 229 226 221 220 210 218 216
164 215 215 223 238 238 231 226 81 193 233 213 206 215 221 224 221 224 223 235 205 237 245 232 237 241 260 270 271 277 271 278 278 280 268 241 227 238 246 259 269 265 264 263 271 281 288 291 291 289 288 287 285 284 274 262 266 270 266 264 239 219 224 229 224 230 230 232 237 238 236 231 229 231 234 237 234 230 233 232 228 227 227 217 214 217
165 216 209 206 230 238 243 241 142 149 227 238 220 217 214 212 218 222 232 242 243 238 253 243 234 235 250 262 271 271 277 281 292 286 288 284 275 255 257 262 263 268 276 278 273 280 293 295 287 286 288 290 294 284 275 275 264 251 256 256 259 252 240 218 216 228 225 228 236 237 232 235 235 232 230 230 231 232 231 231 230 227 228 222 221 222
173 229 224 208 234 237 239 240 207 206 234 244 240 237 243 218 217 222 229 230 229 235 239 247 255 250 247 262 272 276 280 289 288 289 282 268 271 274 264 263 264 270 275 282 297 299 287 277 278 280 285 285 285 288 289 281 265 253 257 265 246 236 239 203 228 227 224 226 233 235 223 234 235 231 228 226 227 230 228 229 228 227 228 229 226 227
205 230 199 145 225 248 249 248 231 222 222 240 242 245 241 263 261 238 244 243 241 240 238 234 239 250 255 267 275 280 277 275 276 273 270 268 278 264 255 257 258 256 272 296 296 284 280 278 275 278 275 270 271 271 276 281 280 277 266 257 260 249 223 198 230 231 233 237 235 230 228 228 236 232 231 229 228 227 225 221 216 219 225 228 226 225
188 245 103 162 233 246 241 242 240 231 231 243 248 244 241 236 242 231 229 222 230 237 238 242 241 245 251 252 263 276 279 272 263 265 273 284 254 225 242 253 259 265 272 267 263 270 279 281 277 270 273 281 277 261 271 278 275 272 263 263 257 242 198 210 228 235 242 250 252 231 227 229 232 233 234 229 227 223 223 221 217 221 222 223 223 223
181 199 195 190 220 238 243 230 243 251 266 255 238 233 232 232 228 234 239 239 240 246 254 243 247 239 242 248 259 267 274 275 273 272 273 279 280 270 265 263 261 261 253 250 260 271 276 277 279 281 284 286 286 277 264 269 279 272 269 289 295 199 206 218 228 236 245 243 240 240 226 225 229 233 232 226 228 220 215 219 225 226 220 221 215 203
168 197 217 195 234 254 251 222 216 244 242 238 231 227 224 236 239 242 244 242 242 234 239 242 251 254 253 244 245 259 268 274 276 273 263 268 285 283 264 239 244 263 268 268 263 265 273 277 279 282 283 283 279 271 276 278 277 289 321 315 291 247 234 222 229 230 247 253 244 236 226 216 222 235 234 228 221 219 219 219 226 225 221 213 199 210
179 184 209 161 224 243 230 120 228 241 243 241 246 265 252 247 246 247 245 242 239 238 241 246 253 258 257 257 259 258 258 263 266 271 276 256 239 262 273 280 278 267 259 261 269 274 273 273 279 283 285 289 294 298 305 301 297 289 273 258 261 239 240 226 233 234 236 244 246 237 233 218 215 229 231 222 219 215 220 222 228 223 216 205 204 205
173 182 197 202 223 260 268 237 240 233 248 269 283 258 243 242 242 241 248 248 247 245 242 243 247 250 250 250 249 250 255 262 270 275 277 272 250 260 281 282 272 266 270 263 257 265 267 278 286 292 298 303 305 301 304 293 274 266 269 264 252 274 265 264 253 253 242 246 245 238 234 227 227 225 220 217 211 219 221 218 217 217 208 202 209 209
151 153 187 222 190 230 236 246 244 320 300 275 266 243 207 212 217 223 249 252 244 237 234 240 242 244 245 247 250 255 260 268 274 276 271 259 264 264 245 260 263 267 269 278 288 297 302 299 290 290 296 303 309 314 309 297 286 269 275 279 271 273 259 247 252 250 243 246 246 237 231 222 225 229 222 213 214 220 223 218 215 213 195 201 204 202
151 175 171 208 221 209 259 271 271 254 253 267 232 237 230 197 230 232 235 263 258 251 233 227 234 238 243 248 250 251 257 269 269 272 274 302 118 231 220 275 313 299 279 271 282 288 290 292 304 308 313 313 310 300 289 289 289 288 282 280 276 265 251 230 247 250 254 254 243 237 228 219 216 225 224 217 221 221 223 220 218 214 199 203 201 206
270 189 156 191 237 234 234 245 242 237 243 245 278 270 186 184 219 233 235 254 257 256 240 234 235 239 241 244 246 248 253 249 253 258 284 86 55 76 341 268 266 301 305 295 289 296 304 311 320 311 306 296 291 303 309 303 299 291 286 281 266 235 246 236 232 238 242 244 237 237 233 214 209 217 217 219 229 224 219 213 212 206 194 216 212 216
189 197 190 217 228 232 232 234 244 227 254 258 255 280 205 191 205 184 235 247 242 252 253 237 234 240 243 242 244 246 237 244 247 257 39 9 353 67 245 305 307 316 302 298 283 269 289 302 312 300 298 302 300 316 316 308 297 288 283 283 282 268 257 252 236 232 234 246 248 245 242 225 216 218 216 225 230 233 234 228 212 206 204 214 214 211
189 201 196 214 218 228 227 242 251 258 251 259 264 245 133 116 136 195 225 238 250 47 43 236 221 230 240 247 252 258 249 267 301 349 8 6 347 341 338 307 301 304 308 311 309 323 303 297 282 286 288 290 298 309 310 306 299 290 290 288 282 278 285 268 247 245 248 240 232 230 231 229 221 226 226 224 225 221 229 222 219 205 201 202 205 202
200 187 212 215 226 225 226 232 238 259 253 250 266 140 144 136 232 236 236 231 121 106 69 194 133 65 84 98 70 300 314 334 316 331 348 353 351 322 328 334 328 309 272 268 286 300 302 308 305 297 290 279 300 301 300 304 297 292 299 300 292 291 290 288 280 269 257 248 239 225 227 228 229 226 230 224 214 215 218 213 206 205 201 204 198 200
176 171 196 200 204 218 221 234 232 249 238 234 197 22 197 219 243 247 54 294 37 140 174 156 69 119 147 82 124 305 315 334 342 338 338 336 343 333 327 324 322 319 318 323 321 312 323 309 310 304 300 307 312 305 304 304 292 292 296 289 286 299 304 299 293 283 274 265 253 244 240 234 224 225 219 218 210 212 221 205 201 203 196 202 201 201
156 188 196 217 178 206 199 209 215 220 247 120 166 209 180 221 248 92 213 184 97 340 349 32 330 299 335 17 344 341 344 344 325 337 327 320 324 323 313 309 315 316 313 305 279 289 315 296 288 293 296 305 305 301 305 297 294 292 288 281 291 302 299 298 294 294 287 279 267 256 248 242 236 230 223 220 211 211 215 206 203 202 203 202 203 208
184 197 181 197 179 198 209 216 225 250 196 208 209 195 238 293 35 150 37 58 84 340 334 53 347 323 235 307 325 302 310 299 298 303 299 300 309 308 312 313 314 309 307 307 306 310 309 287 294 297 300 300 301 299 298 273 280 288 285 285 303 302 304 302 303 298 290 283 275 264 255 241 238 231 222 220 209 216 216 213 197 207 206 201 207 206
208 208 70 204 217 221 255 249 243 202 277 262 263 205 232 240 312 103 94 70 156 307 251 243 188 270 279 218 209 283 242 268 290 309 316 321 320 318 314 313 308 306 306 304 304 304 301 300 294 290 288 295 295 299 298 278 267 280 282 299 305 299 298 298 297 293 285 285 278 269 259 250 239 222 223 215 214 219 220 214 207 209 207 207 214 209
218 134 190 223 146 163 236 233 228 237 212 244 271 249 210 226 215 152 84 116 18 273 249 243 212 232 220 201 215 241 249 226 244 257 272 286 285 285 284 284 286 279 286 292 292 302 306 302 296 291 292 292 293 298 302 299 281 267 283 294 296 297 293 290 284 283 286 284 283 274 256 246 234 208 213 215 217 215 221 218 218 212 211 208 207 201
244 162 212 226 217 204 236 65 47 35 213 279 234 290 277 189 104 121 193 162 164 221 234 265 240 239 210 215 223 221 247 230 241 269 272 268 266 269 265 255 256 266 267 264 275 282 279 279 283 291 295 292 293 297 297 299 297 298 296 292 296 298 292 281 274 275 280 281 279 277 249 236 232 226 219 211 214 218 215 220 216 215 215 208 203 196
113 136 212 183 210 248 296 277 287 308 290 243 246 266 267 321 143 145 196 214 215 252 254 256 230 241 195 235 185 226 260 260 247 251 262 259 244 241 244 247 245 243 252 259 259 257 269 284 290 290 292 287 290 298 295 293 296 303 310 310 308 299 290 279 274 270 269 268 266 262 256 242 238 227 231 217 214 223 223 217 218 224 235 228 221 218
123 205 160 100 226 238 234 225 154 257 262 317 218 209 178 101 133 152 150 210 224 233 239 252 258 235 241 249 242 230 240 260 253 229 236 242 253 269 274 274 275 273 265 258 265 273 276 272 274 286 291 291 295 296 292 295 297 302 305 312 313 308 298 294 289 276 267 258 254 258 252 249 242 236 236 234 231 225 234 235 236 234 232 240 221 230
212 169 148 218 214 253 138 190 200 240 308 231 261 94 104 167 189 209 203 226 228 215 247 273 289 253 225 249 232 236 253 253 269 254 254 257 274 281 281 288 297 303 302 300 299 291 283 285 284 283 285 289 296 292 293 291 293 299 303 308 307 303 294 293 290 280 271 261 246 235 244 248 248 238 244 242 237 232 230 232 230 244 251 254 237 223